Temperature
15 15 15 15 14 14 14 14 14 14 13 13 13 13 13 13 13 13 13 13 13 13 13 12 12 12 12 12 12 12 12 12 12 12 12 11 11 11
15 15 14 14 14 14 14 14 14 14 13 13 13 13 13 13 13 13 13 12 12 12 12 12 12 12 12 12 12 12 12 12 12 11 11 11 11 11
14 14 14 14 14 14 14 14 14 14 14 13 13 13 13 13 13 13 12 12 12 12 12 12 12 12 12 12 12 12 12 12 11 11 11 11 11 11
14 14 14 14 14 14 14 14 14 14 14 13 13 13 13 12 12 12 12 12 12 12 12 12 12 12 12 12 11 11 11 11 11 11 11 11 11 10
14 14 14 14 14 14 14 14 14 14 13 13 13 13 13 12 12 12 12 12 12 11 11 11 11 11 11 11 11 11 11 11 11 11 11 10 10 10
14 14 14 14 14 14 14 14 13 13 13 13 13 13 12 12 12 12 12 12 11 11 11 11 11 11 11 11 10 10 10 10 10 10 10 10 10 10
14 14 14 14 14 14 14 13 13 13 13 13 13 12 12 12 12 12 12 11 11 11 11 10 10 10 10 10 10 10 10 10 9 9 9 9 9 9
14 14 14 14 14 13 13 13 13 13 13 13 12 12 12 12 11 11 11 11 11 11 10 10 10 10 10 9 9 9 9 9 9 9 9 9 9 9
14 14 14 13 13 13 13 13 13 13 12 12 12 12 12 12 11 11 11 11 11 10 10 10 10 9 9 9 9 9 9 8 8 8 8 8 8 8
14 14 14 13 13 13 13 13 12 12 12 12 12 12 11 11 11 11 11 10 10 10 10 10 9 9 8 8 8 8 8 8 8 7 7 7 7 7
14 14 13 13 13 13 13 13 12 12 12 12 11 11 11 11 11 11 10 10 10 10 9 9 9 9 8 8 8 8 7 7 7 7 7 7 7 7
14 13 13 13 13 13 12 12 12 12 12 11 11 11 11 11 10 10 10 10 10 9 9 9 8 8 8 8 7 7 7 7 7 7 6 6 6 6
14 13 13 13 13 12 12 12 12 11 11 11 11 11 10 10 10 10 9 9 9 9 8 8 8 7 7 7 7 7 6 6 6 6 6 6 5 5
13 13 13 13 12 12 12 12 11 11 11 11 11 10 10 10 9 9 9 9 8 8 8 7 7 7 7 6 6 6 6 6 5 5 5 5 5 5
13 13 12 12 12 12 11 11 11 11 11 11 10 10 10 9 9 9 8 8 8 8 7 7 7 6 6 6 5 5 5 5 5 5 5 4 4 4
13 12 12 12 12 11 11 11 11 10 10 10 10 9 9 9 9 8 8 8 7 7 7 6 6 6 5 5 5 5 4 4 4 4 4 4 4 3
12 12 12 11 11 11 11 11 10 10 10 10 9 9 9 8 8 8 8 7 7 7 6 6 5 5 5 5 4 4 4 4 3 3 3 3 3 3
12 12 12 11 11 11 11 10 10 10 9 9 9 9 8 8 8 7 7 7 6 6 6 5 5 5 5 4 4 3 3 3 3 3 2 2 2 2
12 12 11 11 11 11 10 10 10 9 9 9 8 8 8 8 7 7 7 6 6 5 5 4 4 4 4 3 3 3 3 2 2 2 2 2 1 2
11 11 11 11 11 10 10 10 9 9 9 8 8 8 7 7 7 6 6 5 5 5 4 4 4 3 3 2 2 2 2 2 2 2 1 1 1 1
11 11 11 10 10 10 10 9 9 9 8 8 8 7 7 6 6 6 5 5 4 4 4 4 3 3 2 2 2 2 2 1 1 1 0 0 0 0
11 11 10 10 10 10 9 9 8 8 8 8 7 7 6 6 6 5 5 4 4 4 3 3 3 2 2 2 1 1 1 1 1 0 0 -1 -1 -1
10 10 10 10 9 9 9 8 8 8 8 7 7 7 6 6 5 5 4 4 3 3 3 2 2 2 1 1 1 0 0 0 0 0 -0 -1 -1 -1
Wind_Speed
3 3 2 2 2 2 3 3 4 2 1 2 2 4 6 6 8 8 8 10 10 11 12 13 14 14 15 15 15 15 16 16 16 16 16 16 16 16
2 4 3 2 2 2 2 2 3 4 2 1 1 2 4 5 8 8 8 10 11 11 12 13 13 13 14 14 14 14 15 15 15 15 15 16 16 15
3 4 3 3 3 3 3 3 3 3 4 1 1 2 4 4 6 8 9 9 10 12 12 12 13 13 13 13 14 14 14 14 14 15 15 15 15 15
3 4 3 3 4 3 3 3 2 2 4 3 2 3 3 3 3 4 7 8 9 11 12 12 12 12 13 13 13 13 14 14 14 14 15 15 15 15
3 4 3 4 3 3 3 3 3 3 3 3 2 2 2 2 3 3 5 6 7 9 10 11 12 12 12 12 12 13 13 13 14 14 14 14 14 14
2 3 3 4 4 4 4 3 4 5 4 4 3 2 2 2 2 2 3 4 4 7 8 8 10 11 12 12 12 12 12 12 13 13 13 13 14 14
3 2 3 4 5 5 4 4 5 4 4 3 2 2 2 1 1 1 1 2 3 5 4 6 7 8 9 10 10 10 11 11 12 12 13 13 13 13
3 2 2 3 4 5 6 7 6 5 4 3 2 1 1 1 1 1 1 2 2 3 3 3 5 4 6 7 9 10 10 10 11 11 11 12 12 12
3 3 3 3 4 4 5 6 5 5 6 5 3 2 1 2 1 1 1 1 0 2 2 2 3 3 4 7 9 9 9 9 10 10 10 11 11 11
3 3 4 3 3 5 6 5 4 3 3 3 3 2 1 2 2 2 2 2 1 2 2 1 2 2 3 5 8 9 10 10 10 10 10 10 10 10
2 3 4 4 5 8 6 5 3 3 5 5 5 4 4 4 5 4 2 2 1 2 2 1 2 2 2 2 6 9 9 10 10 11 11 11 10 9
2 2 4 5 6 8 6 5 4 1 2 4 5 6 6 6 5 3 2 2 1 1 2 1 1 2 3 2 4 7 8 9 10 11 12 11 10 8
3 2 2 5 6 7 7 5 5 4 3 4 3 4 4 5 5 4 3 2 2 1 1 0 0 1 1 3 3 4 6 6 8 10 11 11 10 8
4 3 3 7 7 8 6 6 7 7 4 4 3 3 2 2 3 4 4 4 3 1 1 1 1 1 0 1 3 4 4 6 6 7 9 10 10 10
4 6 7 8 7 5 6 7 6 4 4 3 2 1 1 1 3 4 5 6 7 6 5 3 1 0 1 1 2 3 3 3 5 6 7 7 7 7
5 6 8 7 6 5 5 4 3 3 3 3 2 1 1 2 2 2 2 2 2 3 7 6 4 1 0 1 1 2 3 3 5 6 6 6 7 8
7 4 3 3 3 2 2 2 2 2 2 2 2 1 1 2 1 1 1 1 1 2 3 4 6 4 1 0 1 3 3 4 4 5 4 5 6 8
8 5 4 3 4 3 3 2 2 2 2 2 2 2 1 1 1 1 1 1 1 1 2 2 3 3 3 2 1 2 3 4 5 5 4 4 6 7
6 5 4 5 4 4 3 3 2 2 2 2 2 1 1 1 1 1 1 1 1 1 2 2 2 2 3 4 4 2 3 4 4 4 4 4 5 7
4 4 5 4 4 4 4 3 2 2 2 2 2 1 1 1 1 0 0 0 1 1 2 2 1 1 2 3 3 4 6 4 4 5 5 5 5 8
4 4 4 4 4 4 4 3 3 3 3 2 2 2 2 2 1 1 1 0 0 1 2 3 3 3 1 1 2 4 5 7 6 4 5 5 6 6
4 4 4 4 4 4 4 4 3 3 3 2 2 2 2 2 2 2 1 1 1 1 2 2 3 2 1 1 3 5 5 6 9 9 7 6 4 5
4 4 4 4 4 4 4 4 4 3 3 3 2 2 2 2 1 1 1 1 1 1 1 2 2 2 2 2 3 4 6 7 5 6 6 11 11 11
Wind_Direction
100 104 101 95 110 122 131 139 138 123 354 328 341 351 6 23 30 39 40 42 47 47 47 46 46 47 46 45 45 44 43 41 41 42 41 38 36 34
95 96 88 90 91 92 109 107 118 138 141 301 305 328 3 31 36 42 43 47 48 50 50 50 50 50 49 48 47 45 43 41 39 38 38 36 34 32
87 102 96 97 94 84 89 94 95 112 126 10 351 359 21 27 25 36 45 46 46 50 55 55 53 53 51 49 47 45 44 42 39 36 34 33 32 30
110 109 106 104 92 85 90 91 94 102 126 116 22 10 16 15 19 30 36 44 45 47 53 54 52 54 52 49 47 46 44 41 38 35 32 31 30 28
130 131 130 119 109 100 97 96 90 90 92 111 63 15 6 16 18 26 39 35 41 40 46 49 52 54 52 48 47 47 43 41 38 36 33 31 28 26
120 130 134 138 140 131 117 111 106 95 89 91 76 36 15 358 35 28 23 27 32 31 35 43 47 49 47 46 45 44 41 39 36 34 31 29 27 25
103 110 126 134 136 137 130 131 122 110 101 95 80 49 21 13 3 352 23 14 31 28 22 30 36 41 39 40 40 41 39 35 31 29 26 24 22 22
129 114 110 114 119 121 122 126 130 129 132 120 107 105 299 279 326 51 43 38 4 3 22 13 33 33 30 36 35 38 36 31 27 24 22 21 19 18
141 132 119 115 112 112 107 103 99 108 130 138 137 177 203 226 153 91 90 100 115 331 21 2 7 16 22 28 34 35 31 27 22 18 17 15 13 11
145 145 135 128 129 129 112 97 81 73 103 114 139 167 170 155 155 157 155 126 40 14 37 12 343 339 3 19 30 32 29 25 18 14 10 8 8 7
131 135 145 141 141 134 122 115 92 61 73 89 92 80 71 84 113 100 85 78 17 342 12 34 326 323 332 355 15 22 24 22 17 13 10 5 2 3
109 113 135 144 140 137 135 135 132 133 97 76 65 59 61 69 87 99 131 122 111 322 336 16 341 356 337 329 358 9 14 12 12 11 8 4 3 5
143 141 140 141 139 139 138 145 155 141 115 98 75 55 51 52 50 54 73 119 134 230 317 67 37 12 315 308 328 355 2 2 6 5 3 3 4 5
160 163 146 138 134 133 133 136 132 119 106 94 79 55 40 27 31 46 59 70 81 85 10 103 148 189 262 303 306 328 339 352 1 359 357 358 359 358
155 148 140 134 127 120 121 124 120 116 115 108 108 78 7 29 51 53 47 56 54 42 33 43 75 121 149 243 296 315 321 331 350 351 351 354 350 349
134 124 121 114 108 104 99 100 105 132 134 143 142 114 59 59 49 46 41 27 37 11 17 23 30 71 50 295 295 316 322 322 336 339 342 345 348 350
136 114 108 110 112 101 96 98 104 113 117 116 119 104 78 68 37 30 47 52 56 360 356 5 14 31 31 281 315 310 317 322 325 332 338 337 337 342
133 138 148 155 165 167 160 148 135 144 148 131 125 122 112 97 56 42 56 69 43 351 346 350 2 8 7 1 308 296 323 321 326 332 334 328 328 334
140 154 163 172 176 176 173 167 171 171 148 140 140 141 136 125 101 73 55 41 353 329 327 345 10 19 354 333 326 334 320 321 330 334 328 316 311 317
158 166 176 177 175 174 174 170 161 144 138 143 145 148 146 144 143 170 196 209 288 320 337 348 343 323 289 291 299 314 328 323 323 322 321 315 302 306
178 180 178 173 171 169 167 162 160 158 156 155 160 165 167 161 182 218 234 302 356 331 321 312 304 323 338 5 330 323 323 331 328 321 321 322 323 325
173 176 176 170 167 165 162 160 162 166 169 171 177 181 179 178 191 202 212 229 265 287 302 318 343 8 23 332 312 315 320 330 336 335 333 329 325 321
172 167 167 168 165 160 160 163 168 178 181 179 181 184 181 183 192 196 217 230 253 299 332 336 344 346 328 312 313 316 320 326 330 333 328 329 321 312
Height
1558 1558 1558 1559 1559 1560 1560 1561 1561 1560 1561 1561 1561 1560 1559 1559 1558 1557 1556 1555 1553 1552 1551 1549 1548 1546 1544 1543 1541 1539 1538 1536 1534 1532 1531 1529 1527 1525
1558 1558 1559 1559 1560 1560 1560 1561 1561 1561 1561 1561 1561 1561 1560 1560 1559 1558 1557 1556 1555 1554 1552 1551 1549 1548 1546 1544 1543 1541 1539 1538 1536 1534 1532 1530 1528 1526
1558 1559 1559 1559 1560 1560 1561 1561 1561 1561 1561 1562 1562 1561 1561 1560 1560 1559 1558 1557 1556 1555 1554 1552 1551 1549 1548 1546 1544 1542 1541 1539 1537 1535 1533 1531 1529 1527
1559 1559 1559 1560 1560 1561 1561 1561 1561 1562 1562 1561 1562 1562 1561 1561 1560 1559 1559 1558 1557 1556 1554 1553 1552 1550 1549 1547 1545 1543 1542 1540 1538 1536 1534 1532 1530 1528
1559 1559 1560 1560 1561 1561 1561 1561 1562 1562 1562 1562 1562 1562 1562 1561 1561 1560 1559 1558 1557 1556 1555 1554 1552 1551 1549 1548 1546 1544 1542 1540 1539 1536 1534 1532 1530 1528
1559 1560 1560 1561 1561 1561 1562 1562 1562 1562 1562 1562 1562 1562 1562 1561 1561 1560 1559 1559 1558 1557 1556 1554 1553 1552 1550 1548 1546 1545 1543 1541 1539 1536 1534 1532 1530 1528
1560 1560 1561 1561 1561 1562 1562 1562 1562 1562 1562 1562 1562 1562 1561 1561 1560 1560 1559 1559 1558 1557 1556 1554 1553 1551 1550 1548 1546 1544 1543 1540 1538 1536 1534 1532 1530 1527
1560 1560 1561 1561 1562 1562 1562 1562 1563 1562 1562 1562 1562 1561 1561 1561 1560 1560 1559 1558 1557 1557 1556 1554 1553 1551 1549 1547 1546 1544 1542 1540 1538 1536 1533 1531 1529 1526
1560 1560 1561 1561 1562 1562 1562 1562 1562 1562 1563 1563 1562 1561 1561 1561 1560 1559 1558 1557 1556 1556 1555 1553 1552 1550 1548 1547 1545 1543 1541 1539 1537 1535 1533 1530 1528 1525
1559 1560 1560 1561 1561 1562 1562 1562 1562 1562 1562 1562 1562 1561 1561 1560 1559 1559 1558 1557 1556 1555 1554 1552 1550 1549 1548 1546 1544 1543 1541 1538 1536 1534 1531 1529 1527 1524
1558 1559 1560 1560 1561 1561 1561 1561 1561 1561 1561 1561 1561 1560 1560 1559 1559 1558 1557 1556 1555 1554 1552 1551 1549 1548 1547 1545 1543 1541 1539 1537 1535 1532 1530 1527 1525 1522
1557 1558 1559 1559 1560 1560 1560 1560 1560 1561 1561 1560 1560 1559 1559 1558 1557 1557 1556 1555 1553 1552 1551 1550 1548 1547 1545 1544 1542 1540 1538 1536 1533 1531 1528 1525 1522 1520
1556 1557 1558 1558 1558 1559 1559 1559 1559 1560 1559 1559 1559 1558 1558 1557 1556 1555 1554 1553 1552 1551 1550 1548 1547 1545 1544 1542 1540 1539 1536 1534 1531 1529 1526 1523 1520 1517
1554 1555 1556 1557 1557 1557 1558 1558 1558 1558 1558 1558 1557 1557 1556 1556 1555 1554 1553 1552 1551 1550 1548 1547 1545 1544 1542 1540 1538 1536 1534 1532 1529 1526 1523 1520 1518 1515
1552 1553 1554 1555 1555 1556 1556 1556 1557 1557 1556 1556 1556 1555 1555 1555 1554 1553 1552 1551 1549 1548 1547 1545 1544 1542 1540 1538 1536 1534 1531 1529 1526 1523 1520 1518 1515 1512
1550 1551 1552 1553 1553 1554 1554 1554 1555 1555 1554 1554 1554 1554 1553 1553 1552 1551 1550 1549 1548 1546 1545 1543 1541 1540 1538 1536 1534 1531 1529 1527 1524 1521 1518 1515 1513 1509
1547 1548 1549 1550 1551 1551 1552 1552 1552 1553 1552 1552 1552 1552 1552 1551 1550 1549 1548 1547 1545 1544 1542 1541 1539 1537 1536 1534 1531 1529 1527 1524 1521 1518 1515 1512 1510 1507
1544 1545 1546 1547 1548 1549 1549 1550 1550 1550 1550 1550 1550 1550 1549 1548 1548 1547 1545 1544 1542 1541 1539 1538 1536 1534 1533 1530 1530 1526 1524 1521 1519 1516 1513 1509 1506 1504
1541 1542 1543 1544 1545 1546 1547 1547 1547 1548 1548 1548 1548 1547 1546 1546 1545 1544 1542 1541 1540 1538 1537 1535 1533 1531 1529 1527 1526 1524 1521 1518 1515 1513 1510 1507 1503 1500
1537 1539 1540 1541 1542 1543 1543 1544 1544 1545 1545 1545 1544 1544 1543 1542 1541 1540 1539 1538 1537 1535 1534 1532 1531 1529 1527 1526 1523 1521 1519 1516 1512 1509 1506 1503 1500 1498
1534 1535 1536 1537 1538 1539 1540 1541 1541 1542 1542 1541 1541 1541 1540 1539 1538 1537 1536 1535 1534 1532 1530 1529 1528 1527 1525 1523 1520 1517 1516 1513 1510 1507 1503 1499 1496 1493
1530 1531 1533 1534 1535 1536 1536 1537 1538 1538 1538 1538 1537 1537 1536 1536 1535 1534 1533 1532 1531 1529 1528 1527 1525 1524 1522 1519 1517 1514 1512 1510 1507 1505 1502 1498 1495 1490
1526 1528 1529 1530 1531 1532 1532 1533 1534 1534 1534 1534 1533 1533 1533 1532 1532 1531 1530 1529 1528 1526 1525 1523 1522 1520 1518 1516 1514 1512 1509 1506 1503 1501 1498 1496 1493 1490